Central Illinois Regional Airport at Bloomington-normal Bloomington-normal US
ICAO: KBMI
IATA: BMI
Category: Large
Scheduled Services: Yes

Elevation: 871 ft
TransAlt. 18000 ft.

Airport Communications:
PEORIA APP/DEP:118.05
ASOS:135.35
ATIS:135.35
CTAF:124.6
GND:121.65
KANKAKEE RDO:108.2
BLOOMINGTON TWR:124.6
UNICOM:122.95

KBMI Zoom In..

If you have problems with the map follow the link
https://www.worldairports.se/pages/airport.php?
ICAO=KBMI

Runways:

(A) RW 02 length 8000 ft width 150 ft
ILS 111.90 / hdg 18

(B) RW 11 length 6525 ft width 150 ft
---- / hdg 108

(C) RW 20 length 8000 ft width 150 ft
ILS 111.90 / hdg 198

(D) RW 29 length 6525 ft width 150 ft
ILS 108.30 / hdg 288

Location; KBMI
Day. 19 / Time. 12.56 Zulu
* Altimeter: 30.12
* Temperature: -02° c. -28.4°f.
* Wind from: VRB° Speed 03 kn.
Dewpoint: -03° c.
Visibility: 10 Statute Miles.
Clouds: Overcast 400 ft.

KBMI 191256Z VRB03KT 10SM OVC004 M02/M03 A3012 RMK AO2 SLP224 T10221033


Wind From VRB°
Speed 03 kn.

 
 
jpsmedia.com for Web Design worldairports.se 2018   terms of use